Location: Saint-Palais-sur-Mer
(45.6429°N, 1.0859°W)
Time: 09:30:22
(UTC+01:00)

Explorer 7 - All Passes

Search period start: 15 February 2026 00:00
Search period end: 25 February 2026 00:00
Orbit: 431 x 545 km, 50.2° (Epoch: 13 February)

Date Brightness Start Highest point End Pass type
(mag) Time Alt. Az. Time Alt. Az. Time Alt. Az.
15 Feb - 00:08:08 10° W 00:11:03 20° SW 00:14:01 10° S night (unlit)
15 Feb - 17:07:47 10° SW 17:11:15 49° SSE 17:14:51 10° ENE daylight
15 Feb - 18:46:09 10° W 18:49:43 50° NNW 18:53:28 10° ENE daylight
15 Feb - 20:25:02 10° WNW 20:28:38 42° N 20:32:23 10° E visible
15 Feb - 22:03:29 10° WNW 22:07:22 88° SSW 22:11:23 10° ESE visible
15 Feb - 23:42:30 10° W 23:45:28 20° SW 23:48:29 10° S night (unlit)
16 Feb - 16:42:14 10° SW 16:45:39 47° SE 16:49:13 10° ENE daylight
16 Feb - 18:20:33 10° W 18:24:06 50° NNW 18:27:49 10° ENE daylight
16 Feb - 19:59:26 10° WNW 20:03:00 41° N 20:06:44 10° ENE visible
16 Feb - 21:37:53 10° WNW 21:41:44 90° WNW 21:45:44 10° ESE visible
16 Feb - 23:16:52 10° W 23:19:52 21° SW 23:22:55 10° S night (unlit)
17 Feb - 16:16:38 10° SW 16:20:02 45° SE 16:23:33 10° ENE daylight
17 Feb - 17:54:55 10° W 17:58:28 51° NNW 18:02:09 10° ENE daylight
17 Feb - 19:33:48 10° WNW 19:37:21 41° N 19:41:02 10° ENE visible
17 Feb - 21:12:15 10° WNW 21:16:05 88° NNE 21:20:03 10° ESE visible
17 Feb - 22:51:11 10° W 22:54:13 22° SW 22:57:19 10° S night (unlit)
18 Feb - 15:51:01 10° SW 15:54:22 43° SE 15:57:51 10° ENE daylight
18 Feb - 17:29:15 10° W 17:32:47 52° NNW 17:36:27 10° ENE daylight
18 Feb - 19:08:08 10° WNW 19:11:40 40° N 19:15:19 10° ENE visible
18 Feb - 20:46:35 10° WNW 20:50:24 85° NNE 20:54:20 10° ESE visible
18 Feb - 22:25:28 10° W 22:28:32 22° SW 22:31:40 10° S visible
19 Feb - 15:25:22 10° SW 15:28:41 41° SE 15:32:06 10° ENE daylight
19 Feb - 17:03:33 10° W 17:07:03 53° NNW 17:10:43 10° ENE daylight
19 Feb - 18:42:26 10° WNW 18:45:56 40° N 18:49:33 10° ENE daylight
19 Feb - 20:20:54 10° WNW 20:24:40 83° NNE 20:28:36 10° ESE visible
19 Feb - 21:59:44 10° W 22:02:50 23° SW 22:05:59 10° SSE visible
20 Feb - 14:59:41 10° SW 15:02:57 39° SE 15:06:20 10° ENE daylight
20 Feb - 16:37:49 10° W 16:41:18 54° NNW 16:44:56 10° ENE daylight
20 Feb - 18:16:42 10° WNW 18:20:10 39° N 18:23:46 10° ENE daylight
20 Feb - 19:55:10 10° WNW 19:58:54 81° NNE 20:02:49 10° ESE visible
20 Feb - 21:33:58 10° W 21:37:05 24° SW 21:40:16 10° SSE visible
21 Feb - 14:33:58 10° SSW 14:37:12 37° SE 14:40:32 10° ENE daylight
21 Feb - 16:12:04 10° W 16:15:32 55° NNW 16:19:08 10° ENE daylight
21 Feb - 17:50:57 10° WNW 17:54:22 39° N 17:57:56 10° ENE daylight
21 Feb - 19:29:24 10° WNW 19:33:07 78° NNE 19:36:59 10° ESE visible
21 Feb - 21:08:10 10° W 21:11:18 24° SW 21:14:31 10° SSE visible
22 Feb - 14:08:13 10° SSW 14:11:24 35° SE 14:14:41 10° ENE daylight
22 Feb - 15:46:15 10° W 15:49:43 56° NNW 15:53:18 10° ENE daylight
22 Feb - 17:25:08 10° WNW 17:28:33 39° N 17:32:04 10° ENE daylight
22 Feb - 19:03:36 10° WNW 19:07:17 76° NNE 19:11:08 10° ESE visible
22 Feb - 20:42:19 10° W 20:45:29 25° SW 20:48:44 10° SSE visible
23 Feb - 13:42:26 10° SSW 13:45:35 34° SE 13:48:49 10° ENE daylight
23 Feb - 15:20:25 10° W 15:23:52 57° NNW 15:27:26 10° ENE daylight
23 Feb - 16:59:18 10° WNW 17:02:41 38° N 17:06:11 10° ENE daylight
23 Feb - 18:37:46 10° WNW 18:41:26 73° NNE 18:45:14 10° ESE daylight
23 Feb - 20:16:28 10° W 20:19:38 26° SW 20:22:54 10° SSE visible
24 Feb - 13:16:37 10° SSW 13:19:44 32° SE 13:22:54 10° ENE daylight
24 Feb - 14:54:33 10° W 14:57:59 59° NNW 15:01:33 10° ENE daylight
24 Feb - 16:33:26 10° WNW 16:36:48 38° N 16:40:16 10° ENE daylight
24 Feb - 18:11:54 10° WNW 18:15:33 71° NNE 18:19:19 10° ESE daylight
24 Feb - 19:50:34 10° W 19:53:45 27° SW 19:57:03 10° SSE visible
